Location: Appeville
(49.3218°N, 1.3427°W)
Time: 12:00:59
(UTC+00:00)

Cosmos 2056 Rocket - Pass Details

Date: 08 December 2019
Orbit: 741 x 801 km, 74.0° (Epoch: 21 January)

Event Time Altitude Azimuth Distance (km) Brightness Sun altitude
Exits shadow 05:13:14 11° 199° (SSW) 2,180 5.7 -24.0°
Maximum altitude 05:18:09 85° 111° (ESE) 752 3.4 -23.2°
Drops below altitude 10° 05:23:17 10° 24° (NNE) 2,270 6.1 -22.4°
Sets 05:25:40 0° 24° (NNE) 3,204 6.9 -22.0°
